Regional Weather Roundup
Issued by NWS

Home | Current Version | Previous Version | Graphics & Text | Print | Product List | Glossary On
Versions: 1 2 3 4 5 6 7 8 9 10 11 12 13 14 15 16 17 18 19 20 21 22 23 24 25 26 27 28 29 30 31 32 33 34 35 36 37 38 39 40 41 42 43 44 45 46 47 48 49 50
000
ASUS43 KTOP 260659
RWRKS

WEATHER ROUNDUP FOR KANSAS
NATIONAL WEATHER SERVICE GOODLAND KS
200 AM CDT TUE MAY 26 2015

NOTE:  "FAIR" INDICATES FEW OR NO CLOUDS BELOW 12,000 FEET WITH NO
SIGNIFICANT WEATHER AND/OR OBSTRUCTIONS TO VISIBILITY.

KSZ001>006-013>018-027>032-041>047-260800-
NORTHWEST KANSAS

CITY           SKY/WX    TMP DP  RH WIND       PRES   REMARKS
GOODLAND       PTCLDY    50  47  89 W7        29.94F
HAYS           CLOUDY    57  52  82 NW3       29.85S
HILL CITY      CLOUDY    57  51  80 W12       29.85S
RUSSELL        CLOUDY    60  57  89 SW13      29.81F
$$

KSZ061>065-074>080-084>089-260800-
SOUTHWEST KANSAS

CITY           SKY/WX    TMP DP  RH WIND       PRES   REMARKS
DODGE CITY     MOCLDY    60  52  74 SW8       29.90R
ELKHART          N/A     56  48  74 SW6         N/A
GARDEN CITY    PTCLDY    57  50  77 N10       29.90S
GREAT BEND     CLOUDY    59  54  82 S7        29.84S
LIBERAL        MOCLDY    55  48  76 SW9       29.90F
$$

KSZ066>073-081>083-090>101-260800-
SOUTHEAST KANSAS

CITY           SKY/WX    TMP DP  RH WIND       PRES   REMARKS
CHANUTE        CLOUDY    64  57  78 NW6       29.81R
COFFEYVILLE    MOCLDY    61  60  97 NW6       29.80F
HUTCHINSON     RAIN      62  55  77 SW12      29.84F
NEWTON         CLOUDY    57  54  88 SE3       29.86F
PARSONS        CLOUDY    64  61  90 CALM      29.83R
WICHITA INTL   LGT RAIN  60  58  92 NE3       29.85R
WICHITA JABRA  CLOUDY    58  57  97 CALM      29.84S
WINFIELD       CLOUDY    60  59  96 CALM      29.84F
$$

KSZ007>012-019>026-033>040-048>060-102>105-260800-
NORTHEAST KANSAS

CITY           SKY/WX    TMP DP  RH WIND       PRES   REMARKS
CONCORDIA      CLOUDY    60  56  86 S3        29.81R
EMPORIA        LGT RAIN  60  59  96 NE6       29.84F
LAWRENCE       CLOUDY    62  60  93 NW7       29.83F
MANHATTAN      LGT RAIN  63  59  87 CALM      29.82R
OLATHE IND     CLOUDY    62  61  96 NW8       29.82F
OLATHE EXE     CLOUDY    63  61  93 N6        29.81F
SALINA         CLOUDY    62  57  83 S7        29.81F
TOPEKA BILLARD RAIN      62  61  96 E9        29.85F FOG
TOPEKA FORBES  LGT RAIN  63  60  90 E8        29.84F
$$



USA.gov is the U.S. government's official web portal to all federal, state and local government web resources and services.